Weather in Krasnoarmeyskiy

Russia / Volgograd Oblast     49°58′36″N   42°26′33″E
temp.,
°C
wind,
m/s
gust,
m/s
humid.,
%
clouds,
%
prec.,
mm/h
press.,
hPa
HPBL,
m
25 july, sun
sun2500:00+18n22785 0.3 101512
03:00+17ene22815 0.3 101616
06:00+18ne23722 0.0 1017114
09:00+24ene33460 0.0 1018979
12:00+27nne533760 0.0 10182320
15:00+27nne433598 0.0 10191908
18:00+26ne543512 0.0 10191546
21:00+21ene45470 0.0 102073
26 july, mon
mon2600:00+18ene39524 0.0 1022144
03:00+17e335514 0.0 102245
06:00+19ne354917 0.0 1023153
09:00+25ene44340 0.0 1023841
12:00+28ene432722 0.0 10222615
15:00+29ne322572 0.0 10212741
18:00+28ne532623 0.0 10211757
21:00+21ene410424 0.0 1022177
27 july, tue
tue2700:00+19e37440 0.0 1022107
03:00+17ese22500 0.0 102313
06:00+19e11470 0.0 102355
09:00+25e22320 0.0 1023784
12:00+28nne33260 0.0 10212620
15:00+30nne342321 0.0 10193036
18:00+28ne452879 0.0 1019650
21:00+23ene343919 0.0 102063
28 july, wed
wed2800:00+21ene114610 0.0 102011
03:00+19wsw005029 0.0 101911
06:00+21e11495 0.0 101937
09:00+28sse11335 0.0 1019883
12:00+31nw122642 0.0 10172979
15:00+31nw222592 0.0 10163049
18:00+31nw222513 0.0 10152017
21:00+26se333345 0.0 101545
29 july, thu
thu2900:00+23ssw333817 0.0 101433
03:00+23s343897 0.0 101380
06:00+21wnw2563100 0.2 1012165
09:00+22s486583 0.5 1012389
12:00+29sw794446 0.4 10101715
15:00+29w5741100 0.5 10081954
18:00+31w7103370 0.0 10081777
21:00+24nw485885 0.0 1010221